Year,Month,Day,Hour,Minute,Value (Times are PST for temperature in C)
2017,05,28,00,00,19.10
2017,05,28,00,01,19.00
2017,05,28,00,02,19.00
2017,05,28,00,03,18.90
2017,05,28,00,04,18.90
2017,05,28,00,05,18.90
2017,05,28,00,06,18.90
2017,05,28,00,07,18.90
2017,05,28,00,08,18.80
2017,05,28,00,09,18.80
2017,05,28,00,10,18.70
2017,05,28,00,11,18.70
2017,05,28,00,12,18.70
2017,05,28,00,13,18.70
2017,05,28,00,14,18.70
2017,05,28,00,15,18.70
2017,05,28,00,16,18.70
2017,05,28,00,17,18.70
2017,05,28,00,18,18.70
2017,05,28,00,19,18.70
2017,05,28,00,20,18.70
2017,05,28,00,21,18.80
2017,05,28,00,22,18.70
2017,05,28,00,23,18.70
2017,05,28,00,24,18.70
2017,05,28,00,25,18.70
2017,05,28,00,26,18.70
2017,05,28,00,27,18.70
2017,05,28,00,28,18.70
2017,05,28,00,29,18.70
2017,05,28,00,30,18.70
2017,05,28,00,31,18.70
2017,05,28,00,32,18.70
2017,05,28,00,33,18.70
2017,05,28,00,34,18.70
2017,05,28,00,35,18.60
2017,05,28,00,36,18.60
2017,05,28,00,37,18.60
2017,05,28,00,38,18.60
2017,05,28,00,39,18.60
2017,05,28,00,40,18.60
2017,05,28,00,41,18.60
2017,05,28,00,42,18.60
2017,05,28,00,43,18.70
2017,05,28,00,44,18.70
2017,05,28,00,45,18.70
2017,05,28,00,46,18.70
2017,05,28,00,47,18.70
2017,05,28,00,48,18.60
2017,05,28,00,49,18.60
2017,05,28,00,50,18.60
2017,05,28,00,51,18.60
2017,05,28,00,52,18.50
2017,05,28,00,53,18.40
2017,05,28,00,54,18.40
2017,05,28,00,55,18.30
2017,05,28,00,56,18.20
2017,05,28,00,57,18.20
2017,05,28,00,58,18.10
2017,05,28,00,59,18.00
2017,05,28,01,00,18.00
2017,05,28,01,01,17.90
2017,05,28,01,02,17.90
2017,05,28,01,03,17.80
2017,05,28,01,04,17.90
2017,05,28,01,05,17.90
2017,05,28,01,06,18.00
2017,05,28,01,07,18.00
2017,05,28,01,08,18.10
2017,05,28,01,09,18.10
2017,05,28,01,10,18.10
2017,05,28,01,11,18.10
2017,05,28,01,12,18.20
2017,05,28,01,13,18.20
2017,05,28,01,14,18.20
2017,05,28,01,15,18.20
2017,05,28,01,16,18.20
2017,05,28,01,17,18.20
2017,05,28,01,18,18.30
2017,05,28,01,19,18.30
2017,05,28,01,20,18.20
2017,05,28,01,21,18.20
2017,05,28,01,22,18.20
2017,05,28,01,23,18.20
2017,05,28,01,24,18.20
2017,05,28,01,25,18.20
2017,05,28,01,26,18.20
2017,05,28,01,27,18.20
2017,05,28,01,28,18.20
2017,05,28,01,29,18.10
2017,05,28,01,30,18.10
2017,05,28,01,31,18.10
2017,05,28,01,32,18.10
2017,05,28,01,33,18.10
2017,05,28,01,34,18.20
2017,05,28,01,35,18.20
2017,05,28,01,36,18.20
2017,05,28,01,37,18.20
2017,05,28,01,38,18.20
2017,05,28,01,39,18.20
2017,05,28,01,40,18.20
2017,05,28,01,41,18.20
2017,05,28,01,42,18.20
2017,05,28,01,43,18.20
2017,05,28,01,44,18.20
2017,05,28,01,45,18.20
2017,05,28,01,46,18.20
2017,05,28,01,47,18.20
2017,05,28,01,48,18.20
2017,05,28,01,49,18.20
2017,05,28,01,50,18.10
2017,05,28,01,51,18.10
2017,05,28,01,52,18.10
2017,05,28,01,53,18.00
2017,05,28,01,54,18.10
2017,05,28,01,55,18.00
2017,05,28,01,56,18.10
2017,05,28,01,57,18.10
2017,05,28,01,58,18.10
2017,05,28,01,59,18.10
2017,05,28,02,00,18.10
2017,05,28,02,01,18.00
2017,05,28,02,02,18.00
2017,05,28,02,03,17.90
2017,05,28,02,04,17.90
2017,05,28,02,05,17.90
2017,05,28,02,06,18.00
2017,05,28,02,07,18.10
2017,05,28,02,08,18.10
2017,05,28,02,09,18.10
2017,05,28,02,10,18.00
2017,05,28,02,11,18.00
2017,05,28,02,12,18.00
2017,05,28,02,13,17.90
2017,05,28,02,14,17.90
2017,05,28,02,15,17.90
2017,05,28,02,16,17.80
2017,05,28,02,17,17.80
2017,05,28,02,18,17.80
2017,05,28,02,19,17.80
2017,05,28,02,20,17.80
2017,05,28,02,21,17.80
2017,05,28,02,22,17.80
2017,05,28,02,23,17.80
2017,05,28,02,24,17.80
2017,05,28,02,25,17.70
2017,05,28,02,26,17.60
2017,05,28,02,27,17.60
2017,05,28,02,28,17.60
2017,05,28,02,29,17.50
2017,05,28,02,30,17.50
2017,05,28,02,31,17.50
2017,05,28,02,32,17.60
2017,05,28,02,33,17.70
2017,05,28,02,34,17.70
2017,05,28,02,35,17.70
2017,05,28,02,36,17.70
2017,05,28,02,37,17.60
2017,05,28,02,38,17.70
2017,05,28,02,39,17.70
2017,05,28,02,40,17.80
2017,05,28,02,41,17.90
2017,05,28,02,42,17.90
2017,05,28,02,43,17.90
2017,05,28,02,44,17.90
2017,05,28,02,45,17.80
2017,05,28,02,46,17.80
2017,05,28,02,47,17.70
2017,05,28,02,48,17.70
2017,05,28,02,49,17.70
2017,05,28,02,50,17.70
2017,05,28,02,51,17.70
2017,05,28,02,52,17.70
2017,05,28,02,53,17.70
2017,05,28,02,54,17.70
2017,05,28,02,55,17.60
2017,05,28,02,56,17.50
2017,05,28,02,57,17.50
2017,05,28,02,58,17.40
2017,05,28,02,59,17.30
2017,05,28,03,00,17.30
2017,05,28,03,01,17.30
2017,05,28,03,02,17.30
2017,05,28,03,03,17.40
2017,05,28,03,04,17.40
2017,05,28,03,05,17.40
2017,05,28,03,06,17.40
2017,05,28,03,07,17.50
2017,05,28,03,08,17.50
2017,05,28,03,09,17.50
2017,05,28,03,10,17.50
2017,05,28,03,11,17.50
2017,05,28,03,12,17.50
2017,05,28,03,13,17.50
2017,05,28,03,14,17.50
2017,05,28,03,15,17.50
2017,05,28,03,16,17.50
2017,05,28,03,17,17.40
2017,05,28,03,18,17.40
2017,05,28,03,19,17.40
2017,05,28,03,20,17.40
2017,05,28,03,21,17.40
2017,05,28,03,22,17.30
2017,05,28,03,23,17.30
2017,05,28,03,24,17.30
2017,05,28,03,25,17.20
2017,05,28,03,26,17.20
2017,05,28,03,27,17.10
2017,05,28,03,28,17.00
2017,05,28,03,29,17.00
2017,05,28,03,30,16.90
2017,05,28,03,31,16.80
2017,05,28,03,32,16.70
2017,05,28,03,33,16.70
2017,05,28,03,34,16.60
2017,05,28,03,35,16.50
2017,05,28,03,36,16.50
2017,05,28,03,37,16.40
2017,05,28,03,38,16.40
2017,05,28,03,39,16.30
2017,05,28,03,40,16.30
2017,05,28,03,41,16.30
2017,05,28,03,42,16.30
2017,05,28,03,43,16.30
2017,05,28,03,44,16.30
2017,05,28,03,45,16.30
2017,05,28,03,46,16.30
2017,05,28,03,47,16.30
2017,05,28,03,48,16.30
2017,05,28,03,49,16.30
2017,05,28,03,50,16.40
2017,05,28,03,51,16.40
2017,05,28,03,52,16.40
2017,05,28,03,53,16.30
2017,05,28,03,54,16.30
2017,05,28,03,55,16.30
2017,05,28,03,56,16.30
2017,05,28,03,57,16.30
2017,05,28,03,58,16.30
2017,05,28,03,59,16.30
2017,05,28,04,00,16.30
2017,05,28,04,01,16.30
2017,05,28,04,02,16.30
2017,05,28,04,03,16.30
2017,05,28,04,04,16.20
2017,05,28,04,05,16.20
2017,05,28,04,06,16.10
2017,05,28,04,07,16.10
2017,05,28,04,08,16.00
2017,05,28,04,09,16.00
2017,05,28,04,10,15.90
2017,05,28,04,11,15.90
2017,05,28,04,12,15.80
2017,05,28,04,13,15.80
2017,05,28,04,14,15.80
2017,05,28,04,15,15.90
2017,05,28,04,16,15.90
2017,05,28,04,17,16.00
2017,05,28,04,18,16.00
2017,05,28,04,19,16.10
2017,05,28,04,20,16.10
2017,05,28,04,21,16.10
2017,05,28,04,22,16.10
2017,05,28,04,23,16.10
2017,05,28,04,24,16.10
2017,05,28,04,25,16.10
2017,05,28,04,26,16.10
2017,05,28,04,27,16.10
2017,05,28,04,28,16.10
2017,05,28,04,29,16.10
2017,05,28,04,30,16.10
2017,05,28,04,31,16.10
2017,05,28,04,32,16.10
2017,05,28,04,33,16.20
2017,05,28,04,34,16.30
2017,05,28,04,35,16.50
2017,05,28,04,36,16.60
2017,05,28,04,37,16.70
2017,05,28,04,38,16.80
2017,05,28,04,39,16.90
2017,05,28,04,40,17.10
2017,05,28,04,41,17.20
2017,05,28,04,42,17.30
2017,05,28,04,43,17.30
2017,05,28,04,44,17.30
2017,05,28,04,45,17.30
2017,05,28,04,46,17.30
2017,05,28,04,47,17.30
2017,05,28,04,48,17.30
2017,05,28,04,49,17.30
2017,05,28,04,50,17.30
2017,05,28,04,51,17.30
2017,05,28,04,52,17.40
2017,05,28,04,53,17.40
2017,05,28,04,54,17.40
2017,05,28,04,55,17.40
2017,05,28,04,56,17.40
2017,05,28,04,57,17.40
2017,05,28,04,58,17.40
2017,05,28,04,59,17.40
2017,05,28,05,00,17.40
2017,05,28,05,01,17.40
2017,05,28,05,02,17.40
2017,05,28,05,03,17.40
2017,05,28,05,04,17.40
2017,05,28,05,05,17.40
2017,05,28,05,06,17.40
2017,05,28,05,07,17.40
2017,05,28,05,08,17.30
2017,05,28,05,09,17.20
2017,05,28,05,10,17.10
2017,05,28,05,11,16.90
2017,05,28,05,12,16.80
2017,05,28,05,13,16.70
2017,05,28,05,14,16.60
2017,05,28,05,15,16.50
2017,05,28,05,16,16.40
2017,05,28,05,17,16.40
2017,05,28,05,18,16.40
2017,05,28,05,19,16.40
2017,05,28,05,20,16.40
2017,05,28,05,21,16.50
2017,05,28,05,22,16.60
2017,05,28,05,23,16.60
2017,05,28,05,24,16.60
2017,05,28,05,25,16.70
2017,05,28,05,26,16.70
2017,05,28,05,27,16.70
2017,05,28,05,28,16.70
2017,05,28,05,29,16.70
2017,05,28,05,30,16.70
2017,05,28,05,31,16.70
2017,05,28,05,32,16.60
2017,05,28,05,33,16.60
2017,05,28,05,34,16.50
2017,05,28,05,35,16.50
2017,05,28,05,36,16.40
2017,05,28,05,37,16.30
2017,05,28,05,38,16.30
2017,05,28,05,39,16.20
2017,05,28,05,40,16.10
2017,05,28,05,41,16.10
2017,05,28,05,42,16.00
2017,05,28,05,43,15.90
2017,05,28,05,44,15.90
2017,05,28,05,45,15.90
2017,05,28,05,46,15.80
2017,05,28,05,47,15.80
2017,05,28,05,48,15.80
2017,05,28,05,49,15.70
2017,05,28,05,50,15.70
2017,05,28,05,51,15.70
2017,05,28,05,52,15.70
2017,05,28,05,53,15.60
2017,05,28,05,54,15.60
2017,05,28,05,55,15.60
2017,05,28,05,56,15.60
2017,05,28,05,57,15.60
2017,05,28,05,58,15.60
2017,05,28,05,59,15.60
2017,05,28,06,00,15.70
2017,05,28,06,01,15.70
2017,05,28,06,02,15.80
2017,05,28,06,03,15.90
2017,05,28,06,04,15.90
2017,05,28,06,05,16.10
2017,05,28,06,06,16.30
2017,05,28,06,07,16.40
2017,05,28,06,08,16.40
2017,05,28,06,09,16.40
2017,05,28,06,10,16.40
2017,05,28,06,11,16.40
2017,05,28,06,12,16.50
2017,05,28,06,13,16.60
2017,05,28,06,14,16.60
2017,05,28,06,15,16.70
2017,05,28,06,16,16.80
2017,05,28,06,17,16.80
2017,05,28,06,18,16.90
2017,05,28,06,19,17.00
2017,05,28,06,20,17.10
2017,05,28,06,21,17.20
2017,05,28,06,22,17.20
2017,05,28,06,23,17.30
2017,05,28,06,24,17.30
2017,05,28,06,25,17.40
2017,05,28,06,26,17.50
2017,05,28,06,27,17.60
2017,05,28,06,28,17.70
2017,05,28,06,29,17.80
2017,05,28,06,30,17.80
2017,05,28,06,31,17.90
2017,05,28,06,32,18.10
2017,05,28,06,33,18.20
2017,05,28,06,34,18.30
2017,05,28,06,35,18.40
2017,05,28,06,36,18.50
2017,05,28,06,37,18.50
2017,05,28,06,38,18.60
2017,05,28,06,39,18.70
2017,05,28,06,40,18.70
2017,05,28,06,41,18.90
2017,05,28,06,42,18.90
2017,05,28,06,43,19.00
2017,05,28,06,44,19.20
2017,05,28,06,45,19.20
2017,05,28,06,46,19.20
2017,05,28,06,47,19.30
2017,05,28,06,48,19.20
2017,05,28,06,49,19.20
2017,05,28,06,50,19.20
2017,05,28,06,51,19.20
2017,05,28,06,52,19.20
2017,05,28,06,53,19.20
2017,05,28,06,54,19.20
2017,05,28,06,55,19.20
2017,05,28,06,56,19.30
2017,05,28,06,57,19.30
2017,05,28,06,58,19.30
2017,05,28,06,59,19.30
2017,05,28,07,00,19.30
2017,05,28,07,01,19.30
2017,05,28,07,02,19.30
2017,05,28,07,03,19.30
2017,05,28,07,04,19.30
2017,05,28,07,05,19.40
2017,05,28,07,06,19.40
2017,05,28,07,07,19.40
2017,05,28,07,08,19.40
2017,05,28,07,09,19.40
2017,05,28,07,10,19.40
2017,05,28,07,11,19.50
2017,05,28,07,12,19.60
2017,05,28,07,13,19.60
2017,05,28,07,14,19.60
2017,05,28,07,15,19.60
2017,05,28,07,16,19.60
2017,05,28,07,17,19.60
2017,05,28,07,18,19.60
2017,05,28,07,19,19.60
2017,05,28,07,20,19.70
2017,05,28,07,21,19.70
2017,05,28,07,22,19.80
2017,05,28,07,23,19.80
2017,05,28,07,24,19.80
2017,05,28,07,25,19.70
2017,05,28,07,26,19.70
2017,05,28,07,27,19.80
2017,05,28,07,28,19.80
2017,05,28,07,29,19.80
2017,05,28,07,30,19.80
2017,05,28,07,31,19.80
2017,05,28,07,32,19.80
2017,05,28,07,33,19.80
2017,05,28,07,34,19.80
2017,05,28,07,35,19.80
2017,05,28,07,36,19.80
2017,05,28,07,37,19.90
2017,05,28,07,38,20.00
2017,05,28,07,39,20.00
2017,05,28,07,40,20.00
2017,05,28,07,41,20.10
2017,05,28,07,42,20.20
2017,05,28,07,43,20.30
2017,05,28,07,44,20.30
2017,05,28,07,45,20.30
2017,05,28,07,46,20.10
2017,05,28,07,47,20.00
2017,05,28,07,48,19.80
2017,05,28,07,49,19.60
2017,05,28,07,50,19.50
2017,05,28,07,51,19.30
2017,05,28,07,52,19.30
2017,05,28,07,53,19.20
2017,05,28,07,54,19.10
2017,05,28,07,55,19.00
2017,05,28,07,56,18.90
2017,05,28,07,57,18.80
2017,05,28,07,58,18.70
2017,05,28,07,59,18.60
2017,05,28,08,00,18.50
2017,05,28,08,01,18.50
2017,05,28,08,02,18.40
2017,05,28,08,03,18.40
2017,05,28,08,04,18.40
2017,05,28,08,05,18.40
2017,05,28,08,06,18.40
2017,05,28,08,07,18.40
2017,05,28,08,08,18.40
2017,05,28,08,09,18.40
2017,05,28,08,10,18.40
2017,05,28,08,11,18.40
2017,05,28,08,12,18.40
2017,05,28,08,13,18.30
2017,05,28,08,14,18.30
2017,05,28,08,15,18.30
2017,05,28,08,16,18.20
2017,05,28,08,17,18.20
2017,05,28,08,18,18.20
2017,05,28,08,19,18.20
2017,05,28,08,20,18.20
2017,05,28,08,21,18.20
2017,05,28,08,22,18.20
2017,05,28,08,23,18.20
2017,05,28,08,24,18.30
2017,05,28,08,25,18.20
2017,05,28,08,26,18.20
2017,05,28,08,27,18.20
2017,05,28,08,28,18.20
2017,05,28,08,29,18.20
2017,05,28,08,30,18.20
2017,05,28,08,31,18.10
2017,05,28,08,32,18.10
2017,05,28,08,33,18.10
2017,05,28,08,34,18.10
2017,05,28,08,35,18.20
2017,05,28,08,36,18.20
2017,05,28,08,37,18.20
2017,05,28,08,38,18.30
2017,05,28,08,39,18.40
2017,05,28,08,40,18.40
2017,05,28,08,41,18.50
2017,05,28,08,42,18.60
2017,05,28,08,43,18.60
2017,05,28,08,44,18.70
2017,05,28,08,45,18.80
2017,05,28,08,46,18.90
2017,05,28,08,47,18.90
2017,05,28,08,48,18.90
2017,05,28,08,49,18.90
2017,05,28,08,50,18.90
2017,05,28,08,51,18.80
2017,05,28,08,52,18.80
2017,05,28,08,53,18.70
2017,05,28,08,54,18.70
2017,05,28,08,55,18.70
2017,05,28,08,56,18.80
2017,05,28,08,57,18.80
2017,05,28,08,58,18.80
2017,05,28,08,59,18.80
2017,05,28,09,00,18.80
2017,05,28,09,01,18.80
2017,05,28,09,02,18.80
2017,05,28,09,03,18.70
2017,05,28,09,04,18.60
2017,05,28,09,05,18.60
2017,05,28,09,06,18.60
2017,05,28,09,07,18.60
2017,05,28,09,08,18.60
2017,05,28,09,09,18.60
2017,05,28,09,10,18.50
2017,05,28,09,11,18.50
2017,05,28,09,12,18.40
2017,05,28,09,13,18.40
2017,05,28,09,14,18.40
2017,05,28,09,15,18.40
2017,05,28,09,16,18.50
2017,05,28,09,17,18.50
2017,05,28,09,18,18.60
2017,05,28,09,19,18.60
2017,05,28,09,20,18.60
2017,05,28,09,21,18.60
2017,05,28,09,22,18.70
2017,05,28,09,23,18.70
2017,05,28,09,24,18.70
2017,05,28,09,25,18.80
2017,05,28,09,26,18.80
2017,05,28,09,27,18.90
2017,05,28,09,28,18.90
2017,05,28,09,29,18.90
2017,05,28,09,30,18.80
2017,05,28,09,31,18.80
2017,05,28,09,32,18.70
2017,05,28,09,33,18.60
2017,05,28,09,34,18.60
2017,05,28,09,35,18.50
2017,05,28,09,36,18.50
2017,05,28,09,37,18.40
2017,05,28,09,38,18.40
2017,05,28,09,39,18.40
2017,05,28,09,40,18.50
2017,05,28,09,41,18.40
2017,05,28,09,42,18.40
2017,05,28,09,43,18.40
2017,05,28,09,44,18.30
2017,05,28,09,45,18.30
2017,05,28,09,46,18.30
2017,05,28,09,47,18.30
2017,05,28,09,48,18.30
2017,05,28,09,49,18.30
2017,05,28,09,50,18.40
2017,05,28,09,51,18.50
2017,05,28,09,52,18.50
2017,05,28,09,53,18.60
2017,05,28,09,54,18.60
2017,05,28,09,55,18.70
2017,05,28,09,56,18.70
2017,05,28,09,57,18.60
2017,05,28,09,58,18.60
2017,05,28,09,59,18.50
2017,05,28,10,00,18.50
2017,05,28,10,01,18.50
2017,05,28,10,02,18.60
2017,05,28,10,03,18.60
2017,05,28,10,04,18.60
2017,05,28,10,05,18.70
2017,05,28,10,06,18.70
2017,05,28,10,07,18.80
2017,05,28,10,08,18.80
2017,05,28,10,09,18.80
2017,05,28,10,10,18.90
2017,05,28,10,11,18.90
2017,05,28,10,12,18.90
2017,05,28,10,13,19.00
2017,05,28,10,14,19.00
2017,05,28,10,15,19.10
2017,05,28,10,16,19.10
2017,05,28,10,17,19.10
2017,05,28,10,18,19.00
2017,05,28,10,19,19.00
2017,05,28,10,20,18.90
2017,05,28,10,21,18.80
2017,05,28,10,22,18.80
2017,05,28,10,23,18.70
2017,05,28,10,24,18.70
2017,05,28,10,25,18.60
2017,05,28,10,26,18.50
2017,05,28,10,27,18.40
2017,05,28,10,28,18.40
2017,05,28,10,29,18.40
2017,05,28,10,30,18.40
2017,05,28,10,31,18.40
2017,05,28,10,32,18.40
2017,05,28,10,33,18.50
2017,05,28,10,34,18.50
2017,05,28,10,35,18.60
2017,05,28,10,36,18.70
2017,05,28,10,37,18.80
2017,05,28,10,38,18.80
2017,05,28,10,39,18.80
2017,05,28,10,40,18.70
2017,05,28,10,41,18.70
2017,05,28,10,42,18.70
2017,05,28,10,43,18.80
2017,05,28,10,44,18.80
2017,05,28,10,45,18.80
2017,05,28,10,46,18.80
2017,05,28,10,47,18.80
2017,05,28,10,48,18.70
2017,05,28,10,49,18.60
2017,05,28,10,50,18.60
2017,05,28,10,51,18.60
2017,05,28,10,52,18.60
2017,05,28,10,53,18.50
2017,05,28,10,54,18.60
2017,05,28,10,55,18.60
2017,05,28,10,56,18.60
2017,05,28,10,57,18.60
2017,05,28,10,58,18.50
2017,05,28,10,59,18.60
2017,05,28,11,00,18.70
2017,05,28,11,01,18.80
2017,05,28,11,02,18.80
2017,05,28,11,03,18.90
2017,05,28,11,04,18.90
2017,05,28,11,05,18.90
2017,05,28,11,06,18.90
2017,05,28,11,07,18.90
2017,05,28,11,08,18.90
2017,05,28,11,09,18.90
2017,05,28,11,10,18.90
2017,05,28,11,11,18.90
2017,05,28,11,12,18.90
2017,05,28,11,13,18.80
2017,05,28,11,14,18.80
2017,05,28,11,15,18.80
2017,05,28,11,16,18.80
2017,05,28,11,17,18.90
2017,05,28,11,18,18.90
2017,05,28,11,19,18.90
2017,05,28,11,20,18.90
2017,05,28,11,21,18.90
2017,05,28,11,22,18.90
2017,05,28,11,23,18.90
2017,05,28,11,24,18.90
2017,05,28,11,25,18.90
2017,05,28,11,26,18.80
2017,05,28,11,27,18.70
2017,05,28,11,28,18.70
2017,05,28,11,29,18.70
2017,05,28,11,30,18.70
2017,05,28,11,31,18.60
2017,05,28,11,32,18.60
2017,05,28,11,33,18.70
2017,05,28,11,34,18.70
2017,05,28,11,35,18.80
2017,05,28,11,36,18.80
2017,05,28,11,37,18.80
2017,05,28,11,38,18.80
2017,05,28,11,39,18.80
2017,05,28,11,40,18.80
2017,05,28,11,41,18.80
2017,05,28,11,42,18.90
2017,05,28,11,43,18.90
2017,05,28,11,44,18.90
2017,05,28,11,45,19.00
2017,05,28,11,46,19.00
2017,05,28,11,47,19.00
2017,05,28,11,48,19.00
2017,05,28,11,49,19.10
2017,05,28,11,50,19.10
2017,05,28,11,51,19.10
2017,05,28,11,52,19.10
2017,05,28,11,53,19.10
2017,05,28,11,54,19.10
2017,05,28,11,55,19.30
2017,05,28,11,56,19.40
2017,05,28,11,57,19.50
2017,05,28,11,58,19.70
2017,05,28,11,59,19.70
2017,05,28,12,00,19.80
2017,05,28,12,01,19.80
2017,05,28,12,02,19.80
2017,05,28,12,03,19.70
2017,05,28,12,04,19.70
2017,05,28,12,05,19.60
2017,05,28,12,06,19.70
2017,05,28,12,07,19.70
2017,05,28,12,08,19.80
2017,05,28,12,09,19.80
2017,05,28,12,10,19.70
2017,05,28,12,11,19.60
2017,05,28,12,12,19.50
2017,05,28,12,13,19.40
2017,05,28,12,14,19.40
2017,05,28,12,15,19.30
2017,05,28,12,16,19.30
2017,05,28,12,17,19.20
2017,05,28,12,18,19.20
2017,05,28,12,19,19.20
2017,05,28,12,20,19.20
2017,05,28,12,21,19.20
2017,05,28,12,22,19.20
2017,05,28,12,23,19.20
2017,05,28,12,24,19.10
2017,05,28,12,25,19.10
2017,05,28,12,26,19.10
2017,05,28,12,27,19.20
2017,05,28,12,28,19.30
2017,05,28,12,29,19.30
2017,05,28,12,30,19.40
2017,05,28,12,31,19.40
2017,05,28,12,32,19.50
2017,05,28,12,33,19.50
2017,05,28,12,34,19.50
2017,05,28,12,35,19.50
2017,05,28,12,36,19.60
2017,05,28,12,37,19.60
2017,05,28,12,38,19.70
2017,05,28,12,39,19.80
2017,05,28,12,40,19.80
2017,05,28,12,41,19.90
2017,05,28,12,42,19.90
2017,05,28,12,43,19.90
2017,05,28,12,44,19.80
2017,05,28,12,45,19.70
2017,05,28,12,46,19.80
2017,05,28,12,47,19.80
2017,05,28,12,48,19.90
2017,05,28,12,49,19.80
2017,05,28,12,50,19.90
2017,05,28,12,51,19.90
2017,05,28,12,52,19.90
2017,05,28,12,53,19.80
2017,05,28,12,54,19.80
2017,05,28,12,55,19.80
2017,05,28,12,56,19.80
2017,05,28,12,57,19.80
2017,05,28,12,58,19.80
2017,05,28,12,59,19.80
2017,05,28,13,00,19.90
2017,05,28,13,01,19.90
2017,05,28,13,02,19.90
2017,05,28,13,03,19.80
2017,05,28,13,04,19.80
2017,05,28,13,05,19.70
2017,05,28,13,06,19.70
2017,05,28,13,07,19.70
2017,05,28,13,08,19.70
2017,05,28,13,09,19.70
2017,05,28,13,10,19.80
2017,05,28,13,11,19.80
2017,05,28,13,12,19.80
2017,05,28,13,13,19.80
2017,05,28,13,14,19.90
2017,05,28,13,15,19.90
2017,05,28,13,16,19.90
2017,05,28,13,17,19.80
2017,05,28,13,18,19.90
2017,05,28,13,19,19.90
2017,05,28,13,20,19.90
2017,05,28,13,21,19.90
2017,05,28,13,22,20.00
2017,05,28,13,23,20.00
2017,05,28,13,24,20.10
2017,05,28,13,25,20.20
2017,05,28,13,26,20.30
2017,05,28,13,27,20.40
2017,05,28,13,28,20.40
2017,05,28,13,29,20.40
2017,05,28,13,30,20.40
2017,05,28,13,31,20.30
2017,05,28,13,32,20.30
2017,05,28,13,33,20.20
2017,05,28,13,34,20.20
2017,05,28,13,35,20.20
2017,05,28,13,36,20.30
2017,05,28,13,37,20.30
2017,05,28,13,38,20.30
2017,05,28,13,39,20.30
2017,05,28,13,40,20.30
2017,05,28,13,41,20.30
2017,05,28,13,42,20.30
2017,05,28,13,43,20.30
2017,05,28,13,44,20.20
2017,05,28,13,45,20.20
2017,05,28,13,46,20.20
2017,05,28,13,47,20.20
2017,05,28,13,48,20.30
2017,05,28,13,49,20.30
2017,05,28,13,50,20.40
2017,05,28,13,51,20.40
2017,05,28,13,52,20.40
2017,05,28,13,53,20.40
2017,05,28,13,54,20.40
2017,05,28,13,55,20.40
2017,05,28,13,56,20.40
2017,05,28,13,57,20.40
2017,05,28,13,58,20.40
2017,05,28,13,59,20.40
2017,05,28,14,00,20.30
2017,05,28,14,01,20.20
2017,05,28,14,02,20.20
2017,05,28,14,03,20.20
2017,05,28,14,04,20.20
2017,05,28,14,05,20.20
2017,05,28,14,06,20.20
2017,05,28,14,07,20.20
2017,05,28,14,08,20.30
2017,05,28,14,09,20.30
2017,05,28,14,10,20.40
2017,05,28,14,11,20.40
2017,05,28,14,12,20.50
2017,05,28,14,13,20.50
2017,05,28,14,14,20.50
2017,05,28,14,15,20.60
2017,05,28,14,16,20.60
2017,05,28,14,17,20.60
2017,05,28,14,18,20.60
2017,05,28,14,19,20.50
2017,05,28,14,20,20.50
2017,05,28,14,21,20.50
2017,05,28,14,22,20.40
2017,05,28,14,23,20.30
2017,05,28,14,24,20.20
2017,05,28,14,25,20.30
2017,05,28,14,26,20.30
2017,05,28,14,27,20.40
2017,05,28,14,28,20.40
2017,05,28,14,29,20.30
2017,05,28,14,30,20.40
2017,05,28,14,31,20.30
2017,05,28,14,32,20.40
2017,05,28,14,33,20.50
2017,05,28,14,34,20.50
2017,05,28,14,35,20.50
2017,05,28,14,36,20.60
2017,05,28,14,37,20.50
2017,05,28,14,38,20.40
2017,05,28,14,39,20.40
2017,05,28,14,40,20.40
2017,05,28,14,41,20.40
2017,05,28,14,42,20.40
2017,05,28,14,43,20.50
2017,05,28,14,44,20.50
2017,05,28,14,45,20.60
2017,05,28,14,46,20.60
2017,05,28,14,47,20.60
2017,05,28,14,48,20.80
2017,05,28,14,49,20.80
2017,05,28,14,50,20.90
2017,05,28,14,51,21.00
2017,05,28,14,52,21.10
2017,05,28,14,53,21.20
2017,05,28,14,54,21.30
2017,05,28,14,55,21.30
2017,05,28,14,56,21.40
2017,05,28,14,57,21.40
2017,05,28,14,58,21.40
2017,05,28,14,59,21.40
2017,05,28,15,00,21.40
2017,05,28,15,01,21.50
2017,05,28,15,02,21.50
2017,05,28,15,03,21.60
2017,05,28,15,04,21.70
2017,05,28,15,05,21.80
2017,05,28,15,06,21.90
2017,05,28,15,07,22.00
2017,05,28,15,08,22.00
2017,05,28,15,09,22.10
2017,05,28,15,10,22.10
2017,05,28,15,11,22.00
2017,05,28,15,12,22.00
2017,05,28,15,13,22.00
2017,05,28,15,14,22.00
2017,05,28,15,15,21.90
2017,05,28,15,16,21.90
2017,05,28,15,17,21.80
2017,05,28,15,18,21.80
2017,05,28,15,19,21.80
2017,05,28,15,20,21.80
2017,05,28,15,21,21.80
2017,05,28,15,22,21.80
2017,05,28,15,23,21.80
2017,05,28,15,24,21.80
2017,05,28,15,25,21.80
2017,05,28,15,26,21.80
2017,05,28,15,27,21.70
2017,05,28,15,28,21.70
2017,05,28,15,29,21.60
2017,05,28,15,30,21.60
2017,05,28,15,31,21.70
2017,05,28,15,32,21.70
2017,05,28,15,33,21.80
2017,05,28,15,34,21.80
2017,05,28,15,35,21.80
2017,05,28,15,36,21.90
2017,05,28,15,37,22.00
2017,05,28,15,38,22.00
2017,05,28,15,39,22.00
2017,05,28,15,40,22.10
2017,05,28,15,41,22.10
2017,05,28,15,42,22.10
2017,05,28,15,43,22.20
2017,05,28,15,44,22.20
2017,05,28,15,45,22.30
2017,05,28,15,46,22.30
2017,05,28,15,47,22.40
2017,05,28,15,48,22.40
2017,05,28,15,49,22.50
2017,05,28,15,50,22.50
2017,05,28,15,51,22.50
2017,05,28,15,52,22.50
2017,05,28,15,53,22.50
2017,05,28,15,54,22.50
2017,05,28,15,55,22.60
2017,05,28,15,56,22.70
2017,05,28,15,57,22.70
2017,05,28,15,58,22.70
2017,05,28,15,59,22.60
2017,05,28,16,00,22.70
2017,05,28,16,01,22.60
2017,05,28,16,02,22.60
2017,05,28,16,03,22.50
2017,05,28,16,04,22.40
2017,05,28,16,05,22.40
2017,05,28,16,06,22.40
2017,05,28,16,07,22.40
2017,05,28,16,08,22.30
2017,05,28,16,09,22.30
2017,05,28,16,10,22.40
2017,05,28,16,11,22.40
2017,05,28,16,12,22.50
2017,05,28,16,13,22.60
2017,05,28,16,14,22.70
2017,05,28,16,15,22.70
2017,05,28,16,16,22.70
2017,05,28,16,17,22.80
2017,05,28,16,18,22.80
2017,05,28,16,19,22.80
2017,05,28,16,20,22.80
2017,05,28,16,21,22.80
2017,05,28,16,22,22.70
2017,05,28,16,23,22.70
2017,05,28,16,24,22.70
2017,05,28,16,25,22.60
2017,05,28,16,26,22.50
2017,05,28,16,27,22.40
2017,05,28,16,28,22.40
2017,05,28,16,29,22.30
2017,05,28,16,30,22.30
2017,05,28,16,31,22.20
2017,05,28,16,32,22.20
2017,05,28,16,33,22.20
2017,05,28,16,34,22.20
2017,05,28,16,35,22.30
2017,05,28,16,36,22.30
2017,05,28,16,37,22.40
2017,05,28,16,38,22.40
2017,05,28,16,39,22.40
2017,05,28,16,40,22.40
2017,05,28,16,41,22.50
2017,05,28,16,42,22.50
2017,05,28,16,43,22.60
2017,05,28,16,44,22.60
2017,05,28,16,45,22.60
2017,05,28,16,46,22.60
2017,05,28,16,47,22.60
2017,05,28,16,48,22.60
2017,05,28,16,49,22.60
2017,05,28,16,50,22.60
2017,05,28,16,51,22.60
2017,05,28,16,52,22.70
2017,05,28,16,53,22.70
2017,05,28,16,54,22.70
2017,05,28,16,55,22.70
2017,05,28,16,56,22.80
2017,05,28,16,57,22.80
2017,05,28,16,58,22.80
2017,05,28,16,59,22.80
2017,05,28,17,00,22.80
2017,05,28,17,01,22.70
2017,05,28,17,02,22.70
2017,05,28,17,03,22.70
2017,05,28,17,04,22.70
2017,05,28,17,05,22.60
2017,05,28,17,06,22.60
2017,05,28,17,07,22.60
2017,05,28,17,08,22.60
2017,05,28,17,09,22.70
2017,05,28,17,10,22.70
2017,05,28,17,11,22.70
2017,05,28,17,12,22.70
2017,05,28,17,13,22.80
2017,05,28,17,14,22.80
2017,05,28,17,15,22.90
2017,05,28,17,16,22.90
2017,05,28,17,17,22.90
2017,05,28,17,18,23.00
2017,05,28,17,19,23.00